Find Starlink 31565

NORAD ID: 59323 Int'l Des: 2024-057 Owner: SPXS Country: US Constellation: starlink operational
LEOCIRCULAR

現在のビュー

3D地球を読み込み中...

About Starlink 31565

Starlink 31565 (NORAD 59323) is a starlink constellation satellite (v2 mini) launched Mar 25, 2024 by SPXS of US. It operates in LEO, CIRCULAR orbit with a mass of 730.00 kg.

Starlink 31565について

説明を読み込み中...

次回通過

Passes for default location (London). Set your location on the main map for personalized predictions.

高度履歴

Loading altitude history...

軌道要素

1 59323U 24057D 26173.72041624 .00000722 00000-0 35751-4 0 9991
2 59323 43.0031 321.5779 0001391 278.0529 82.0164 15.27577447125813
Epoch: Jun 22, 2026 • Age: 22 hours

現在のステータス

高度 483.9 km
速度 7.62 km/s
衛星直下点 -8.48°S, 167.39°E
打ち上げ日 Mar 25, 2024
運用期間 2.2 years
タイプ internet

技術仕様

分類 Payload
質量 730.00 kg
乾燥質量 700.00 kg
総質量 730.00 kg
長さ 0.30 m
直径 4.10 m
スパン 29.00 m
形状 Box + pan
製造者 SPXS
バスタイプ Starlink V2M
フェーズステータス In Orbit
所有者/国 SPXS/US

Most Searched